Regional Weather Roundup
Issued by NWS Charleston, SC

Current Version | Previous Version | Text Only | Print | Product List | Glossary Off
Versions: 1 2 3 4 5 6 7 8 9 10 11 12 13 14 15 16 17 18 19 20 21 22 23 24 25 26 27 28 29 30 31 32 33 34 35 36 37 38 39 40 41 42 43 44 45 46 47 48 49 50
000 ASUS42 KCHS 262028 RWRCHS REGIONAL WEATHER ROUNDUP NATIONAL WEATHER SERVICE CHARLESTON SC 400 PM EDT FRI AUG 26 2016 NOTE: "FAIR" INDICATES FEW OR NO CLOUDS BELOW 12,000 FEET WITH NO SIGNIFICANT WEATHER AND/OR OBSTRUCTIONS TO VISIBILITY. NOT ALL STATIONS ARE QUALITY CONTROLLED. USE DATA WITH CAUTION... ESPECIALLY DEWPOINT OBSERVATIONS. SCZ027-030-031-034>040-042>050-262100- ...SOUTHEAST SOUTH CAROLINA... CITY SKY/WX TMP DP RH WIND PRES REMARKS N CHARLESTON MOSUNNY 91 72 53 SE10G18 30.04F HX 98 WATERFRONT PRK N/A 88 76 67 E8 30.04F HX 99 MOUNT PLEASANT FAIR 88 73 62 CALM 30.05F HX 96 JOHNS ISLAND FAIR 88 73 62 E9G16 30.05F HX 96 PINOPOLIS N/A 88 73 62 CALM 29.99F HX 96 MONCKS CORNER MOCLDY 90 70 51 E6 30.04F HX 95 SUMMERVILLE FAIR 93 72 49 NE3 30.04F HX 100 BEAUFORT MCAS MOSUNNY 90 73 57 E10 30.05F HX 98 BEAUFORT ARPT FAIR 88 72 58 E8 30.04F HX 94 HILTON HEAD IS SUNNY 91 73 55 E7 30.06F HX 100 WALTERBORO PTCLDY 91 70 49 E7 30.05S HX 97 ALLENDALE FAIR 93 70 46 VRB6 30.02F HX 99 ...SOUTHERN MIDLANDS AND PEE DEE... CITY SKY/WX TMP DP RH WIND PRES REMARKS GEORGETOWN FAIR 86 72 62 SE10 30.07F HX 92 KINGSTREE FAIR 95 68 41 NE5 30.04F HX 99 ORANGEBURG MOSUNNY 93 69 45 E12G18 30.05F HX 98 BARNWELL NOT AVBL AIKEN FAIR 91 68 46 SE5G10 30.07F HX 95 MANNING FAIR 90 72 55 SW9 30.04F HX 96 COLUMBIA MOSUNNY 97 70 41 E13 30.02F HX 103 SUMTER SUNNY 95 71 45 SE9 30.02F HX 102 FLORENCE PTSUNNY 93 70 46 SE10 30.04F HX 99 MYRTLE BEACH SUNNY 88 66 48 SE12 30.09F HX 90 N MYRTLE BEACH SUNNY 86 72 62 SE9 30.06F HX 92 $$ GAZ063-065-086>088-099>101-113>116-118-119-134>141-150-262100- ...SOUTHEAST GEORGIA... CITY SKY/WX TMP DP RH WIND PRES REMARKS SAVANNAH ARPT MOSUNNY 91 71 51 SE13 30.04F HX 97 HUNTER AAF SUNNY 88 74 63 E13 30.02F HX 97 FORT STEWART MOSUNNY 89 71 54 E3G17 30.02S HX 95 STATESBORO MOSUNNY 94 72 49 E6 30.03F HX 101 SYLVANIA NOT AVBL CLAXTON FAIR 93 70 46 E10 30.03F HX 99 ...CSRA...CENTRAL AND FAR SOUTHEAST GEORGIA... CITY SKY/WX TMP DP RH WIND PRES REMARKS THOMSON MOSUNNY 97 71 43 MISG 30.07F HX 104 AUGUSTA-BUSH MOSUNNY 95 69 42 SE6 30.02F HX 100 AUGUSTA-DANIEL MOSUNNY 95 70 44 SE12 30.04F HX 101 SWAINSBORO FAIR 95 64 36 E14 30.04F HX 97 VIDALIA MOSUNNY 95 72 46 E7 30.03F HX 103 EASTMAN FAIR 96 42 15 SE6 30.04F HX 92 HAZLEHURST FAIR 95 68 40 E5 30.01F HX 99 ALMA MOSUNNY 91 70 49 SE9 30.01F HX 96 WAYCROSS N/A 94 74 52 E10G20 30.02F HX 104 JESUP FAIR 91 73 55 E17 30.03F HX 100 BAXLEY FAIR 95 72 46 NE10 30.01F HX 103 BRUNSWICK MOSUNNY 88 73 62 E15G21 30.04F HX 96 SAINT SIMONS MOSUNNY 88 70 55 E13 30.04F HX 93 $$ SCZ027-028-034-036>038-045-046-048>050-GAZ119-141-262100- ...LAKE AND SUPPLEMENTAL COASTAL OBSERVATIONS... STATION/POSITION TIME TEMP WIND PRES WAVE SWELL AIR SEA DIR/SP/G HT/PER HT/PER/DIR (UTC) (F) (DEG/KT/KT) (MB) (FT/S) (FT/S/D) WINYAH BAY 1900 83 100/ 7 1018.0 LAKE MURRAY 1900 91 210/ 5/ 7 1016.9F ACE BASIN NERRS 1900 89 120/ 3 1018.0F FORT PULASKI 2000 84 86 60/ 10/ 12 1017.9F SAPELO ISLAND 2000 86 60/ 12 1017.0F $$ ANZ835-935-AMZ111-154-330-350-352-354-370-450-454-472-262100- ...C-MAN AND BUOY OBSERVATIONS... STATION/POSITION TIME TEMP WIND PRES WAVE SWELL AIR SEA DIR/SP/G HT/PER HT/PER/DIR (UTC) (F) (DEG/KT/KT) (MB) (FT/S) (FT/S/D) BUOY 41004 1950 82 83 50/ 14/ 16 1017.0F 2/ 7 2/120/ 7 BUOY 41008 1950 83 85 70/ 16/ 17 1016.8F 4/ 8 2/120/ 8 FOLLY BEACH CMAN 2000 83 80/ 11/ 12 1018.2F CAPERS NEARSHORE 1908 82 85 80/ 10/ 14 1017.9F FRIPP NEARSHORE 2008 83 86 90/ 10/ 14 1016.8F STATION/POSITION TIME TEMP WIND PRES WAVE SWELL AIR SEA DIR/SP/G HT/PER HT/PER/DIR (UTC) (F) (DEG/KT/KT) (MB) (FT/S) (FT/S/D) 5E ST. MARYS GA 2001 85 N/A 4/ 8 FRYING PAN BUOY 2000 83 85 50/ 10/ 12 1017.5F BUOY 41025 1950 83 87 CALM / 2 1018.2F 2/ 8 2/ 80/ 8 CAPE LOOKOUT NC 2000 83 150/ 4/ 5 1017.8F BUOY 41002 1950 82 84 60/ 19/ 25 1016.1S 6/ 6 2/140/11 BUOY 41010 NOT AVBL ST AUGUSTINE FL 2000 83 84 60/ 12/ 13 1017.2F $$

USA.gov is the U.S. government's official web portal to all federal, state and local government web resources and services.